Mitchell, SD

6:31 AM CST on December 12, 2017 (GMT -0600)
Mitchell Municipal

Weather History for KMHE - June, 2013

Change the Weather History Date:

Sunday, June 30, 2013

  Actual Average Record
Temperature  
Mean Temperature 70 °F 74 °F  
Max Temperature 81 °F 86 °F 105 °F (1931)
Min Temperature 58 °F 62 °F 45 °F (1924)
Degree Days  
Heating Degree Days 0 0  
Month to date heating degree days 50 33  
Since 1 June heating degree days 50 35  
Since 1 July heating degree days 7651 7245  
Cooling Degree Days 5 9  
Month to date cooling degree days 167 170  
Year to date cooling degree days 224 210  
Since 1 June cooling degree days 167 170  
Growing Degree Days 20 (Base 50)    
Moisture  
Dew Point 54 °F    
Average Humidity 60    
Maximum Humidity 90    
Minimum Humidity 30    
Precipitation  
Precipitation 0.00 in 0.10 in 1.50 in (1993)
Month to date precipitation 2.14 4.13  
Year to date precipitation 12.09 10.86  
Snow  
Snow 0.00 in - 0.00 in ()
Month to date snowfall 0.0  
Since 1 June snowfall 0.0  
Since 1 July snowfall 54.5  
Snow Depth 0.00 in    
Sea Level Pressure  
Sea Level Pressure 30.11 in    
Wind  
Wind Speed 5 mph (NNE)    
Max Wind Speed 16 mph    
Max Gust Speed 29 mph    
Visibility 10 miles    
Events      
T = Trace of Precipitation, MM = Missing Value Source: NWS Daily Summary

Daily Weather History Graph

Daily Weather History Graph

Search for Another Location

Airport or City:

Trip Planner

Search our weather history database for the weather conditions in past years. The results will help you decide how hot, cold, wet, or windy it might be!

Date:

Astronomy

Jun. 30, 2013 Rise Set
Actual Time 5:53 AM CDT 9:17 PM CDT
Civil Twilight 5:17 AM CDT 9:53 PM CDT
Nautical Twilight 4:30 AM CDT 10:40 PM CDT
Astronomical Twilight 3:31 AM CDT 11:39 PM CDT
Moon 1:02 AM CDT (6/30) 2:25 PM CDT (6/30)
Length of Visible Light 16h 36m
Length of Day
15h 24m
Last Quarter, 45% of the Moon is Illuminated
Jun 30
Last Quarter
Jul 8
New
Jul 15
First Quarter
Jul 22
Full
Jul 29
Last Quarter

Hourly Weather History & Observations

Time (CDT) Temp. Heat Index Dew Point Humidity Pressure Visibility Wind Dir Wind Speed Gust Speed Precip Events Conditions
12:53 AM 62.1 °F - 55.9 °F 80% 30.04 in 10.0 mi NW 5.8 mph - N/A   Clear
1:53 AM 62.1 °F - 55.9 °F 80% 30.05 in 10.0 mi NW 6.9 mph - N/A   Partly Cloudy
2:53 AM 60.1 °F - 55.9 °F 86% 30.06 in 10.0 mi NNW 3.5 mph - N/A   Clear
3:53 AM 60.1 °F - 55.9 °F 86% 30.06 in 10.0 mi NNW 3.5 mph - N/A   Clear
4:53 AM 59.0 °F - 55.0 °F 87% 30.07 in 10.0 mi North 4.6 mph - N/A   Clear
5:53 AM 60.1 °F - 55.9 °F 86% 30.08 in 10.0 mi Calm Calm - N/A   Clear
6:53 AM 61.0 °F - 57.9 °F 90% 30.08 in 10.0 mi Calm Calm - N/A   Clear
7:53 AM 64.0 °F - 59.0 °F 84% 30.11 in 10.0 mi NNW 3.5 mph - N/A   Clear
8:53 AM 69.1 °F - 55.9 °F 63% 30.12 in 10.0 mi Calm Calm - N/A   Clear
9:53 AM 72.0 °F - 55.0 °F 55% 30.13 in 10.0 mi Calm Calm - N/A   Partly Cloudy
10:53 AM 75.9 °F - 52.0 °F 43% 30.13 in 10.0 mi NE 6.9 mph - N/A   Clear
11:53 AM 77.0 °F - 52.0 °F 42% 30.13 in 10.0 mi ENE 6.9 mph - N/A   Clear
12:53 PM 78.1 °F - 53.1 °F 42% 30.13 in 10.0 mi NE 11.5 mph 17.3 mph N/A   Clear
1:53 PM 81.0 °F 80.4 °F 53.1 °F 38% 30.12 in 10.0 mi NE 9.2 mph 16.1 mph N/A   Clear
2:53 PM 80.1 °F - 52.0 °F 38% 30.12 in 10.0 mi NNE 9.2 mph - N/A   Clear
3:53 PM 80.1 °F - 50.0 °F 35% 30.12 in 10.0 mi NE 10.4 mph - N/A   Clear
4:53 PM 79.0 °F - 48.9 °F 35% 30.12 in 10.0 mi NE 6.9 mph - N/A   Clear
5:53 PM 80.1 °F - 46.9 °F 31% 30.12 in 10.0 mi ENE 8.1 mph - N/A   Clear
6:53 PM 79.0 °F - 48.0 °F 34% 30.12 in 10.0 mi NE 8.1 mph - N/A   Clear
7:53 PM 77.0 °F - 52.0 °F 42% 30.12 in 10.0 mi ENE 5.8 mph - N/A   Clear
8:53 PM 71.1 °F - 55.9 °F 59% 30.12 in 10.0 mi East 3.5 mph - N/A   Clear
9:53 PM 68.0 °F - 55.0 °F 63% 30.14 in 10.0 mi Calm Calm - N/A   Clear
10:53 PM 66.0 °F - 55.0 °F 68% 30.17 in 10.0 mi Calm Calm - N/A   Clear
11:53 PM 64.9 °F - 54.0 °F 68% 30.17 in 10.0 mi East 3.5 mph - N/A   Clear